Year,Month,Day,Hour,Minute,Value (Times are PST for temperature in C)
2014,05,30,00,00,8.60
2014,05,30,00,01,8.60
2014,05,30,00,02,8.60
2014,05,30,00,03,8.60
2014,05,30,00,04,8.60
2014,05,30,00,05,8.60
2014,05,30,00,06,8.60
2014,05,30,00,07,8.60
2014,05,30,00,08,8.60
2014,05,30,00,09,8.60
2014,05,30,00,10,8.60
2014,05,30,00,11,8.60
2014,05,30,00,12,8.60
2014,05,30,00,13,8.60
2014,05,30,00,14,8.60
2014,05,30,00,15,8.60
2014,05,30,00,16,8.50
2014,05,30,00,17,8.50
2014,05,30,00,18,8.50
2014,05,30,00,19,8.50
2014,05,30,00,20,8.50
2014,05,30,00,21,8.50
2014,05,30,00,22,8.50
2014,05,30,00,23,8.50
2014,05,30,00,24,8.50
2014,05,30,00,25,8.50
2014,05,30,00,26,8.50
2014,05,30,00,27,8.50
2014,05,30,00,28,8.50
2014,05,30,00,29,8.50
2014,05,30,00,30,8.50
2014,05,30,00,31,8.50
2014,05,30,00,32,8.50
2014,05,30,00,33,8.50
2014,05,30,00,34,8.40
2014,05,30,00,35,8.40
2014,05,30,00,36,8.40
2014,05,30,00,37,8.40
2014,05,30,00,38,8.40
2014,05,30,00,39,8.40
2014,05,30,00,40,8.40
2014,05,30,00,41,8.40
2014,05,30,00,42,8.40
2014,05,30,00,43,8.30
2014,05,30,00,44,8.30
2014,05,30,00,45,8.30
2014,05,30,00,46,8.30
2014,05,30,00,47,8.30
2014,05,30,00,48,8.30
2014,05,30,00,49,8.30
2014,05,30,00,50,8.30
2014,05,30,00,51,8.30
2014,05,30,00,52,8.20
2014,05,30,00,53,8.20
2014,05,30,00,54,8.20
2014,05,30,00,55,8.20
2014,05,30,00,56,8.20
2014,05,30,00,57,8.20
2014,05,30,00,58,8.20
2014,05,30,00,59,8.20
2014,05,30,01,00,8.20
2014,05,30,01,01,8.20
2014,05,30,01,02,8.20
2014,05,30,01,03,8.20
2014,05,30,01,04,8.20
2014,05,30,01,05,8.20
2014,05,30,01,06,8.20
2014,05,30,01,07,8.20
2014,05,30,01,08,8.20
2014,05,30,01,09,8.20
2014,05,30,01,10,8.20
2014,05,30,01,11,8.20
2014,05,30,01,12,8.20
2014,05,30,01,13,8.20
2014,05,30,01,14,8.20
2014,05,30,01,15,8.20
2014,05,30,01,16,8.20
2014,05,30,01,17,8.20
2014,05,30,01,18,8.30
2014,05,30,01,19,8.30
2014,05,30,01,20,8.30
2014,05,30,01,21,8.30
2014,05,30,01,22,8.30
2014,05,30,01,23,8.30
2014,05,30,01,24,8.30
2014,05,30,01,25,8.20
2014,05,30,01,26,8.20
2014,05,30,01,27,8.20
2014,05,30,01,28,8.20
2014,05,30,01,29,8.20
2014,05,30,01,30,8.20
2014,05,30,01,31,8.20
2014,05,30,01,32,8.20
2014,05,30,01,33,8.20
2014,05,30,01,34,8.20
2014,05,30,01,35,8.20
2014,05,30,01,36,8.20
2014,05,30,01,37,8.20
2014,05,30,01,38,8.20
2014,05,30,01,39,8.20
2014,05,30,01,40,8.20
2014,05,30,01,41,8.20
2014,05,30,01,42,8.20
2014,05,30,01,43,8.20
2014,05,30,01,44,8.20
2014,05,30,01,45,8.20
2014,05,30,01,46,8.20
2014,05,30,01,47,8.20
2014,05,30,01,48,8.20
2014,05,30,01,49,8.10
2014,05,30,01,50,8.10
2014,05,30,01,51,8.10
2014,05,30,01,52,8.10
2014,05,30,01,53,8.10
2014,05,30,01,54,8.10
2014,05,30,01,55,8.10
2014,05,30,01,56,8.10
2014,05,30,01,57,8.00
2014,05,30,01,58,8.00
2014,05,30,01,59,8.00
2014,05,30,02,00,8.00
2014,05,30,02,01,8.00
2014,05,30,02,02,7.90
2014,05,30,02,03,7.90
2014,05,30,02,04,7.90
2014,05,30,02,05,7.90
2014,05,30,02,06,7.90
2014,05,30,02,07,7.90
2014,05,30,02,08,7.90
2014,05,30,02,09,7.90
2014,05,30,02,10,7.90
2014,05,30,02,11,7.90
2014,05,30,02,12,7.90
2014,05,30,02,13,7.90
2014,05,30,02,14,7.90
2014,05,30,02,15,7.90
2014,05,30,02,16,7.90
2014,05,30,02,17,7.90
2014,05,30,02,18,7.90
2014,05,30,02,19,7.90
2014,05,30,02,20,7.90
2014,05,30,02,21,7.90
2014,05,30,02,22,7.90
2014,05,30,02,23,7.90
2014,05,30,02,24,7.90
2014,05,30,02,25,7.90
2014,05,30,02,26,7.90
2014,05,30,02,27,7.90
2014,05,30,02,28,7.90
2014,05,30,02,29,7.90
2014,05,30,02,30,7.90
2014,05,30,02,31,7.90
2014,05,30,02,32,7.90
2014,05,30,02,33,7.90
2014,05,30,02,34,7.90
2014,05,30,02,35,7.90
2014,05,30,02,36,7.90
2014,05,30,02,37,7.90
2014,05,30,02,38,7.90
2014,05,30,02,39,7.90
2014,05,30,02,40,7.90
2014,05,30,02,41,7.90
2014,05,30,02,42,7.90
2014,05,30,02,43,7.90
2014,05,30,02,44,7.90
2014,05,30,02,45,7.90
2014,05,30,02,46,7.90
2014,05,30,02,47,7.90
2014,05,30,02,48,7.90
2014,05,30,02,49,7.90
2014,05,30,02,50,7.90
2014,05,30,02,51,7.80
2014,05,30,02,52,7.80
2014,05,30,02,53,7.80
2014,05,30,02,54,7.80
2014,05,30,02,55,7.70
2014,05,30,02,56,7.70
2014,05,30,02,57,7.70
2014,05,30,02,58,7.70
2014,05,30,02,59,7.70
2014,05,30,03,00,7.70
2014,05,30,03,01,7.70
2014,05,30,03,02,7.70
2014,05,30,03,03,7.60
2014,05,30,03,04,7.60
2014,05,30,03,05,7.60
2014,05,30,03,06,7.60
2014,05,30,03,07,7.60
2014,05,30,03,08,7.60
2014,05,30,03,09,7.60
2014,05,30,03,10,7.60
2014,05,30,03,11,7.60
2014,05,30,03,12,7.60
2014,05,30,03,13,7.60
2014,05,30,03,14,7.60
2014,05,30,03,15,7.50
2014,05,30,03,16,7.50
2014,05,30,03,17,7.50
2014,05,30,03,18,7.50
2014,05,30,03,19,7.50
2014,05,30,03,20,7.50
2014,05,30,03,21,7.40
2014,05,30,03,22,7.40
2014,05,30,03,23,7.40
2014,05,30,03,24,7.40
2014,05,30,03,25,7.40
2014,05,30,03,26,7.40
2014,05,30,03,27,7.40
2014,05,30,03,28,7.40
2014,05,30,03,29,7.40
2014,05,30,03,30,7.40
2014,05,30,03,31,7.40
2014,05,30,03,32,7.40
2014,05,30,03,33,7.40
2014,05,30,03,34,7.40
2014,05,30,03,35,7.40
2014,05,30,03,36,7.40
2014,05,30,03,37,7.40
2014,05,30,03,38,7.40
2014,05,30,03,39,7.40
2014,05,30,03,40,7.40
2014,05,30,03,41,7.40
2014,05,30,03,42,7.40
2014,05,30,03,43,7.40
2014,05,30,03,44,7.40
2014,05,30,03,45,7.40
2014,05,30,03,46,7.40
2014,05,30,03,47,7.40
2014,05,30,03,48,7.40
2014,05,30,03,49,7.40
2014,05,30,03,50,7.40
2014,05,30,03,51,7.40
2014,05,30,03,52,7.40
2014,05,30,03,53,7.40
2014,05,30,03,54,7.40
2014,05,30,03,55,7.40
2014,05,30,03,56,7.40
2014,05,30,03,57,7.40
2014,05,30,03,58,7.50
2014,05,30,03,59,7.50
2014,05,30,04,00,7.50
2014,05,30,04,01,7.50
2014,05,30,04,02,7.50
2014,05,30,04,03,7.50
2014,05,30,04,04,7.50
2014,05,30,04,05,7.50
2014,05,30,04,06,7.50
2014,05,30,04,07,7.40
2014,05,30,04,08,7.50
2014,05,30,04,09,7.50
2014,05,30,04,10,7.50
2014,05,30,04,11,7.50
2014,05,30,04,12,7.50
2014,05,30,04,13,7.50
2014,05,30,04,14,7.50
2014,05,30,04,15,7.60
2014,05,30,04,16,7.60
2014,05,30,04,17,7.60
2014,05,30,04,18,7.60
2014,05,30,04,19,7.60
2014,05,30,04,20,7.60
2014,05,30,04,21,7.60
2014,05,30,04,22,7.60
2014,05,30,04,23,7.60
2014,05,30,04,24,7.50
2014,05,30,04,25,7.50
2014,05,30,04,26,7.50
2014,05,30,04,27,7.40
2014,05,30,04,28,7.40
2014,05,30,04,29,7.40
2014,05,30,04,30,7.40
2014,05,30,04,31,7.40
2014,05,30,04,32,7.40
2014,05,30,04,33,7.40
2014,05,30,04,34,7.30
2014,05,30,04,35,7.30
2014,05,30,04,36,7.30
2014,05,30,04,37,7.30
2014,05,30,04,38,7.30
2014,05,30,04,39,7.30
2014,05,30,04,40,7.30
2014,05,30,04,41,7.30
2014,05,30,04,42,7.30
2014,05,30,04,43,7.30
2014,05,30,04,44,7.30
2014,05,30,04,45,7.30
2014,05,30,04,46,7.30
2014,05,30,04,47,7.30
2014,05,30,04,48,7.30
2014,05,30,04,49,7.30
2014,05,30,04,50,7.30
2014,05,30,04,51,7.30
2014,05,30,04,52,7.20
2014,05,30,04,53,7.20
2014,05,30,04,54,7.20
2014,05,30,04,55,7.30
2014,05,30,04,56,7.30
2014,05,30,04,57,7.30
2014,05,30,04,58,7.30
2014,05,30,04,59,7.30
2014,05,30,05,00,7.30
2014,05,30,05,01,7.30
2014,05,30,05,02,7.30
2014,05,30,05,03,7.30
2014,05,30,05,04,7.30
2014,05,30,05,05,7.40
2014,05,30,05,06,7.40
2014,05,30,05,07,7.40
2014,05,30,05,08,7.40
2014,05,30,05,09,7.40
2014,05,30,05,10,7.40
2014,05,30,05,11,7.40
2014,05,30,05,12,7.40
2014,05,30,05,13,7.50
2014,05,30,05,14,7.40
2014,05,30,05,15,7.40
2014,05,30,05,16,7.40
2014,05,30,05,17,7.40
2014,05,30,05,18,7.40
2014,05,30,05,19,7.40
2014,05,30,05,20,7.30
2014,05,30,05,21,7.30
2014,05,30,05,22,7.30
2014,05,30,05,23,7.30
2014,05,30,05,24,7.30
2014,05,30,05,25,7.30
2014,05,30,05,26,7.30
2014,05,30,05,27,7.30
2014,05,30,05,28,7.30
2014,05,30,05,29,7.30
2014,05,30,05,30,7.30
2014,05,30,05,31,7.30
2014,05,30,05,32,7.30
2014,05,30,05,33,7.30
2014,05,30,05,34,7.30
2014,05,30,05,35,7.30
2014,05,30,05,36,7.30
2014,05,30,05,37,7.30
2014,05,30,05,38,7.30
2014,05,30,05,39,7.40
2014,05,30,05,40,7.40
2014,05,30,05,41,7.40
2014,05,30,05,42,7.40
2014,05,30,05,43,7.40
2014,05,30,05,44,7.40
2014,05,30,05,45,7.30
2014,05,30,05,46,7.30
2014,05,30,05,47,7.30
2014,05,30,05,48,7.30
2014,05,30,05,49,7.30
2014,05,30,05,50,7.30
2014,05,30,05,51,7.30
2014,05,30,05,52,7.30
2014,05,30,05,53,7.30
2014,05,30,05,54,7.30
2014,05,30,05,55,7.30
2014,05,30,05,56,7.30
2014,05,30,05,57,7.30
2014,05,30,05,58,7.30
2014,05,30,05,59,7.30
2014,05,30,06,00,7.30
2014,05,30,06,01,7.30
2014,05,30,06,02,7.30
2014,05,30,06,03,7.30
2014,05,30,06,04,7.30
2014,05,30,06,05,7.30
2014,05,30,06,06,7.30
2014,05,30,06,07,7.30
2014,05,30,06,08,7.30
2014,05,30,06,09,7.30
2014,05,30,06,10,7.30
2014,05,30,06,11,7.30
2014,05,30,06,12,7.30
2014,05,30,06,13,7.30
2014,05,30,06,14,7.30
2014,05,30,06,15,7.40
2014,05,30,06,16,7.40
2014,05,30,06,17,7.40
2014,05,30,06,18,7.50
2014,05,30,06,19,7.50
2014,05,30,06,20,7.60
2014,05,30,06,21,7.60
2014,05,30,06,22,7.70
2014,05,30,06,23,7.70
2014,05,30,06,24,7.70
2014,05,30,06,25,7.80
2014,05,30,06,26,7.80
2014,05,30,06,27,7.80
2014,05,30,06,28,7.80
2014,05,30,06,29,7.90
2014,05,30,06,30,7.90
2014,05,30,06,31,7.90
2014,05,30,06,32,7.90
2014,05,30,06,33,7.90
2014,05,30,06,34,7.90
2014,05,30,06,35,8.00
2014,05,30,06,36,8.00
2014,05,30,06,37,8.00
2014,05,30,06,38,8.00
2014,05,30,06,39,8.00
2014,05,30,06,40,8.00
2014,05,30,06,41,8.00
2014,05,30,06,42,8.00
2014,05,30,06,43,7.90
2014,05,30,06,44,7.90
2014,05,30,06,45,7.90
2014,05,30,06,46,7.90
2014,05,30,06,47,7.90
2014,05,30,06,48,7.90
2014,05,30,06,49,7.90
2014,05,30,06,50,7.90
2014,05,30,06,51,7.90
2014,05,30,06,52,7.90
2014,05,30,06,53,7.90
2014,05,30,06,54,7.90
2014,05,30,06,55,7.90
2014,05,30,06,56,7.90
2014,05,30,06,57,7.90
2014,05,30,06,58,7.90
2014,05,30,06,59,7.90
2014,05,30,07,00,8.00
2014,05,30,07,01,8.00
2014,05,30,07,02,8.00
2014,05,30,07,03,8.00
2014,05,30,07,04,8.00
2014,05,30,07,05,8.00
2014,05,30,07,06,8.10
2014,05,30,07,07,8.10
2014,05,30,07,08,8.20
2014,05,30,07,09,8.30
2014,05,30,07,10,8.30
2014,05,30,07,11,8.30
2014,05,30,07,12,8.40
2014,05,30,07,13,8.40
2014,05,30,07,14,8.40
2014,05,30,07,15,8.50
2014,05,30,07,16,8.50
2014,05,30,07,17,8.50
2014,05,30,07,18,8.60
2014,05,30,07,19,8.60
2014,05,30,07,20,8.60
2014,05,30,07,21,8.70
2014,05,30,07,22,8.70
2014,05,30,07,23,8.70
2014,05,30,07,24,8.70
2014,05,30,07,25,8.80
2014,05,30,07,26,8.80
2014,05,30,07,27,8.80
2014,05,30,07,28,8.80
2014,05,30,07,29,8.90
2014,05,30,07,30,8.90
2014,05,30,07,31,8.90
2014,05,30,07,32,8.90
2014,05,30,07,33,9.00
2014,05,30,07,34,9.00
2014,05,30,07,35,9.00
2014,05,30,07,36,9.10
2014,05,30,07,37,9.10
2014,05,30,07,38,9.10
2014,05,30,07,39,9.20
2014,05,30,07,40,9.20
2014,05,30,07,41,9.20
2014,05,30,07,42,9.20
2014,05,30,07,43,9.20
2014,05,30,07,44,9.30
2014,05,30,07,45,9.30
2014,05,30,07,46,9.30
2014,05,30,07,47,9.40
2014,05,30,07,48,9.40
2014,05,30,07,49,9.50
2014,05,30,07,50,9.50
2014,05,30,07,51,9.60
2014,05,30,07,52,9.60
2014,05,30,07,53,9.60
2014,05,30,07,54,9.70
2014,05,30,07,55,9.70
2014,05,30,07,56,9.80
2014,05,30,07,57,9.80
2014,05,30,07,58,9.80
2014,05,30,07,59,9.90
2014,05,30,08,00,9.90
2014,05,30,08,01,10.00
2014,05,30,08,02,10.00
2014,05,30,08,03,10.10
2014,05,30,08,04,10.10
2014,05,30,08,05,10.20
2014,05,30,08,06,10.30
2014,05,30,08,07,10.30
2014,05,30,08,08,10.40
2014,05,30,08,09,10.50
2014,05,30,08,10,10.50
2014,05,30,08,11,10.60
2014,05,30,08,12,10.70
2014,05,30,08,13,10.70
2014,05,30,08,14,10.80
2014,05,30,08,15,10.80
2014,05,30,08,16,10.90
2014,05,30,08,17,10.90
2014,05,30,08,18,11.00
2014,05,30,08,19,11.00
2014,05,30,08,20,11.10
2014,05,30,08,21,11.20
2014,05,30,08,22,11.20
2014,05,30,08,23,11.20
2014,05,30,08,24,11.30
2014,05,30,08,25,11.30
2014,05,30,08,26,11.30
2014,05,30,08,27,11.40
2014,05,30,08,28,11.40
2014,05,30,08,29,11.50
2014,05,30,08,30,11.50
2014,05,30,08,31,11.60
2014,05,30,08,32,11.60
2014,05,30,08,33,11.70
2014,05,30,08,34,11.70
2014,05,30,08,35,11.70
2014,05,30,08,36,11.80
2014,05,30,08,37,11.80
2014,05,30,08,38,11.90
2014,05,30,08,39,11.90
2014,05,30,08,40,12.00
2014,05,30,08,41,12.00
2014,05,30,08,42,12.10
2014,05,30,08,43,12.20
2014,05,30,08,44,12.20
2014,05,30,08,45,12.20
2014,05,30,08,46,12.30
2014,05,30,08,47,12.30
2014,05,30,08,48,12.30
2014,05,30,08,49,12.30
2014,05,30,08,50,12.40
2014,05,30,08,51,12.40
2014,05,30,08,52,12.40
2014,05,30,08,53,12.40
2014,05,30,08,54,12.40
2014,05,30,08,55,12.40
2014,05,30,08,56,12.40
2014,05,30,08,57,12.40
2014,05,30,08,58,12.40
2014,05,30,08,59,12.50
2014,05,30,09,00,12.50
2014,05,30,09,01,12.60
2014,05,30,09,02,12.60
2014,05,30,09,03,12.60
2014,05,30,09,04,12.60
2014,05,30,09,05,12.70
2014,05,30,09,06,12.70
2014,05,30,09,07,12.70
2014,05,30,09,08,12.70
2014,05,30,09,09,12.70
2014,05,30,09,10,12.70
2014,05,30,09,11,12.80
2014,05,30,09,12,12.80
2014,05,30,09,13,12.80
2014,05,30,09,14,12.90
2014,05,30,09,15,12.90
2014,05,30,09,16,12.90
2014,05,30,09,17,12.90
2014,05,30,09,18,12.90
2014,05,30,09,19,13.00
2014,05,30,09,20,13.00
2014,05,30,09,21,13.00
2014,05,30,09,22,13.10
2014,05,30,09,23,13.10
2014,05,30,09,24,13.10
2014,05,30,09,25,13.20
2014,05,30,09,26,13.20
2014,05,30,09,27,13.20
2014,05,30,09,28,13.30
2014,05,30,09,29,13.30
2014,05,30,09,30,13.30
2014,05,30,09,31,13.40
2014,05,30,09,32,13.40
2014,05,30,09,33,13.40
2014,05,30,09,34,13.40
2014,05,30,09,35,13.40
2014,05,30,09,36,13.40
2014,05,30,09,37,13.30
2014,05,30,09,38,13.20
2014,05,30,09,39,13.20
2014,05,30,09,40,13.10
2014,05,30,09,41,13.10
2014,05,30,09,42,13.10
2014,05,30,09,43,13.10
2014,05,30,09,44,13.00
2014,05,30,09,45,13.00
2014,05,30,09,46,13.00
2014,05,30,09,47,13.00
2014,05,30,09,48,13.10
2014,05,30,09,49,13.20
2014,05,30,09,50,13.30
2014,05,30,09,51,13.30
2014,05,30,09,52,13.40
2014,05,30,09,53,13.50
2014,05,30,09,54,13.60
2014,05,30,09,55,13.70
2014,05,30,09,56,13.80
2014,05,30,09,57,13.80
2014,05,30,09,58,13.90
2014,05,30,09,59,14.00
2014,05,30,10,00,14.00
2014,05,30,10,01,14.10
2014,05,30,10,02,14.20
2014,05,30,10,03,14.20
2014,05,30,10,04,14.30
2014,05,30,10,05,14.30
2014,05,30,10,06,14.40
2014,05,30,10,07,14.40
2014,05,30,10,08,14.50
2014,05,30,10,09,14.50
2014,05,30,10,10,14.60
2014,05,30,10,11,14.60
2014,05,30,10,12,14.70
2014,05,30,10,13,14.70
2014,05,30,10,14,14.80
2014,05,30,10,15,14.80
2014,05,30,10,16,14.80
2014,05,30,10,17,14.80
2014,05,30,10,18,14.80
2014,05,30,10,19,14.90
2014,05,30,10,20,15.00
2014,05,30,10,21,15.00
2014,05,30,10,22,15.10
2014,05,30,10,23,15.10
2014,05,30,10,24,15.20
2014,05,30,10,25,15.20
2014,05,30,10,26,15.20
2014,05,30,10,27,15.20
2014,05,30,10,28,15.20
2014,05,30,10,29,15.20
2014,05,30,10,30,15.30
2014,05,30,10,31,15.30
2014,05,30,10,32,15.30
2014,05,30,10,33,15.30
2014,05,30,10,34,15.30
2014,05,30,10,35,15.20
2014,05,30,10,36,15.10
2014,05,30,10,37,15.00
2014,05,30,10,38,14.90
2014,05,30,10,39,14.90
2014,05,30,10,40,14.80
2014,05,30,10,41,14.80
2014,05,30,10,42,14.80
2014,05,30,10,43,14.80
2014,05,30,10,44,14.80
2014,05,30,10,45,14.80
2014,05,30,10,46,14.80
2014,05,30,10,47,14.80
2014,05,30,10,48,14.80
2014,05,30,10,49,14.80
2014,05,30,10,50,14.70
2014,05,30,10,51,14.80
2014,05,30,10,52,14.80
2014,05,30,10,53,14.80
2014,05,30,10,54,14.80
2014,05,30,10,55,14.80
2014,05,30,10,56,14.80
2014,05,30,10,57,14.70
2014,05,30,10,58,14.70
2014,05,30,10,59,14.70
2014,05,30,11,00,14.70
2014,05,30,11,01,14.70
2014,05,30,11,02,14.70
2014,05,30,11,03,14.70
2014,05,30,11,04,14.70
2014,05,30,11,05,14.60
2014,05,30,11,06,14.70
2014,05,30,11,07,14.60
2014,05,30,11,08,14.50
2014,05,30,11,09,14.40
2014,05,30,11,10,14.30
2014,05,30,11,11,14.30
2014,05,30,11,12,14.30
2014,05,30,11,13,14.30
2014,05,30,11,14,14.30
2014,05,30,11,15,14.40
2014,05,30,11,16,14.50
2014,05,30,11,17,14.50
2014,05,30,11,18,14.60
2014,05,30,11,19,14.60
2014,05,30,11,20,14.60
2014,05,30,11,21,14.50
2014,05,30,11,22,14.50
2014,05,30,11,23,14.50
2014,05,30,11,24,14.50
2014,05,30,11,25,14.40
2014,05,30,11,26,14.40
2014,05,30,11,27,14.40
2014,05,30,11,28,14.40
2014,05,30,11,29,14.40
2014,05,30,11,30,14.40
2014,05,30,11,31,14.50
2014,05,30,11,32,14.50
2014,05,30,11,33,14.40
2014,05,30,11,34,14.40
2014,05,30,11,35,14.30
2014,05,30,11,36,14.20
2014,05,30,11,37,14.10
2014,05,30,11,38,14.20
2014,05,30,11,39,14.20
2014,05,30,11,40,14.20
2014,05,30,11,41,14.30
2014,05,30,11,42,14.40
2014,05,30,11,43,14.40
2014,05,30,11,44,14.50
2014,05,30,11,45,14.50
2014,05,30,11,46,14.50
2014,05,30,11,47,14.50
2014,05,30,11,48,14.60
2014,05,30,11,49,14.60
2014,05,30,11,50,14.60
2014,05,30,11,51,14.70
2014,05,30,11,52,14.70
2014,05,30,11,53,14.70
2014,05,30,11,54,14.70
2014,05,30,11,55,14.70
2014,05,30,11,56,14.70
2014,05,30,11,57,14.70
2014,05,30,11,58,14.80
2014,05,30,11,59,14.80
2014,05,30,12,00,14.80
2014,05,30,12,01,14.80
2014,05,30,12,02,14.80
2014,05,30,12,03,14.80
2014,05,30,12,04,14.80
2014,05,30,12,05,14.90
2014,05,30,12,06,14.90
2014,05,30,12,07,14.90
2014,05,30,12,08,15.00
2014,05,30,12,09,15.00
2014,05,30,12,10,15.10
2014,05,30,12,11,15.10
2014,05,30,12,12,15.10
2014,05,30,12,13,15.10
2014,05,30,12,14,15.20
2014,05,30,12,15,15.20
2014,05,30,12,16,15.20
2014,05,30,12,17,15.10
2014,05,30,12,18,15.10
2014,05,30,12,19,15.10
2014,05,30,12,20,15.00
2014,05,30,12,21,14.90
2014,05,30,12,22,14.80
2014,05,30,12,23,14.70
2014,05,30,12,24,14.70
2014,05,30,12,25,14.60
2014,05,30,12,26,14.60
2014,05,30,12,27,14.60
2014,05,30,12,28,14.60
2014,05,30,12,29,14.70
2014,05,30,12,30,14.70
2014,05,30,12,31,14.70
2014,05,30,12,32,14.70
2014,05,30,12,33,14.70
2014,05,30,12,34,14.80
2014,05,30,12,35,14.80
2014,05,30,12,36,14.80
2014,05,30,12,37,14.80
2014,05,30,12,38,14.80
2014,05,30,12,39,14.80
2014,05,30,12,40,14.80
2014,05,30,12,41,14.70
2014,05,30,12,42,14.60
2014,05,30,12,43,14.50
2014,05,30,12,44,14.50
2014,05,30,12,45,14.50
2014,05,30,12,46,14.40
2014,05,30,12,47,14.40
2014,05,30,12,48,14.40
2014,05,30,12,49,14.50
2014,05,30,12,50,14.50
2014,05,30,12,51,14.60
2014,05,30,12,52,14.70
2014,05,30,12,53,14.80
2014,05,30,12,54,14.80
2014,05,30,12,55,14.90
2014,05,30,12,56,14.90
2014,05,30,12,57,14.90
2014,05,30,12,58,14.90
2014,05,30,12,59,14.90
2014,05,30,13,00,14.90
2014,05,30,13,01,15.00
2014,05,30,13,02,15.00
2014,05,30,13,03,15.10
2014,05,30,13,04,15.10
2014,05,30,13,05,15.20
2014,05,30,13,06,15.10
2014,05,30,13,07,15.10
2014,05,30,13,08,15.10
2014,05,30,13,09,15.00
2014,05,30,13,10,15.00
2014,05,30,13,11,14.90
2014,05,30,13,12,14.80
2014,05,30,13,13,14.80
2014,05,30,13,14,14.80
2014,05,30,13,15,14.80
2014,05,30,13,16,14.80
2014,05,30,13,17,14.80
2014,05,30,13,18,14.90
2014,05,30,13,19,14.90
2014,05,30,13,20,14.90
2014,05,30,13,21,14.90
2014,05,30,13,22,14.90
2014,05,30,13,23,14.90
2014,05,30,13,24,15.00
2014,05,30,13,25,15.10
2014,05,30,13,26,15.20
2014,05,30,13,27,15.30
2014,05,30,13,28,15.40
2014,05,30,13,29,15.50
2014,05,30,13,30,15.50
2014,05,30,13,31,15.50
2014,05,30,13,32,15.40
2014,05,30,13,33,15.40
2014,05,30,13,34,15.40
2014,05,30,13,35,15.30
2014,05,30,13,36,15.30
2014,05,30,13,37,15.30
2014,05,30,13,38,15.20
2014,05,30,13,39,15.20
2014,05,30,13,40,15.20
2014,05,30,13,41,15.30
2014,05,30,13,42,15.40
2014,05,30,13,43,15.40
2014,05,30,13,44,15.50
2014,05,30,13,45,15.60
2014,05,30,13,46,15.70
2014,05,30,13,47,15.70
2014,05,30,13,48,15.70
2014,05,30,13,49,15.80
2014,05,30,13,50,15.80
2014,05,30,13,51,15.80
2014,05,30,13,52,15.80
2014,05,30,13,53,15.80
2014,05,30,13,54,15.80
2014,05,30,13,55,15.80
2014,05,30,13,56,15.80
2014,05,30,13,57,15.70
2014,05,30,13,58,15.70
2014,05,30,13,59,15.70
2014,05,30,14,00,15.70
2014,05,30,14,01,15.70
2014,05,30,14,02,15.70
2014,05,30,14,03,15.70
2014,05,30,14,04,15.70
2014,05,30,14,05,15.80
2014,05,30,14,06,15.90
2014,05,30,14,07,16.10
2014,05,30,14,08,16.20
2014,05,30,14,09,16.20
2014,05,30,14,10,16.20
2014,05,30,14,11,16.20
2014,05,30,14,12,16.10
2014,05,30,14,13,16.00
2014,05,30,14,14,15.90
2014,05,30,14,15,15.80
2014,05,30,14,16,15.80
2014,05,30,14,17,15.80
2014,05,30,14,18,15.80
2014,05,30,14,19,15.90
2014,05,30,14,20,16.00
2014,05,30,14,21,16.00
2014,05,30,14,22,16.10
2014,05,30,14,23,16.00
2014,05,30,14,24,16.00
2014,05,30,14,25,15.90
2014,05,30,14,26,15.90
2014,05,30,14,27,15.80
2014,05,30,14,28,15.70
2014,05,30,14,29,15.70
2014,05,30,14,30,15.70
2014,05,30,14,31,15.70
2014,05,30,14,32,15.70
2014,05,30,14,33,15.60
2014,05,30,14,34,15.60
2014,05,30,14,35,15.70
2014,05,30,14,36,15.80
2014,05,30,14,37,15.80
2014,05,30,14,38,15.90
2014,05,30,14,39,16.00
2014,05,30,14,40,16.00
2014,05,30,14,41,16.10
2014,05,30,14,42,16.10
2014,05,30,14,43,16.10
2014,05,30,14,44,16.10
2014,05,30,14,45,16.10
2014,05,30,14,46,16.10
2014,05,30,14,47,16.10
2014,05,30,14,48,16.10
2014,05,30,14,49,16.10
2014,05,30,14,50,16.10
2014,05,30,14,51,16.10
2014,05,30,14,52,16.10
2014,05,30,14,53,16.10
2014,05,30,14,54,16.10
2014,05,30,14,55,16.00
2014,05,30,14,56,15.90
2014,05,30,14,57,15.90
2014,05,30,14,58,16.00
2014,05,30,14,59,16.00
2014,05,30,15,00,16.00
2014,05,30,15,01,16.00
2014,05,30,15,02,16.00
2014,05,30,15,03,15.90
2014,05,30,15,04,15.80
2014,05,30,15,05,15.70
2014,05,30,15,06,15.60
2014,05,30,15,07,15.50
2014,05,30,15,08,15.40
2014,05,30,15,09,15.40
2014,05,30,15,10,15.40
2014,05,30,15,11,15.30
2014,05,30,15,12,15.30
2014,05,30,15,13,15.30
2014,05,30,15,14,15.30
2014,05,30,15,15,15.30
2014,05,30,15,16,15.20
2014,05,30,15,17,15.30
2014,05,30,15,18,15.20
2014,05,30,15,19,15.20
2014,05,30,15,20,15.30
2014,05,30,15,21,15.30
2014,05,30,15,22,15.30
2014,05,30,15,23,15.40
2014,05,30,15,24,15.40
2014,05,30,15,25,15.50
2014,05,30,15,26,15.60
2014,05,30,15,27,15.60
2014,05,30,15,28,15.70
2014,05,30,15,29,15.80
2014,05,30,15,30,15.80
2014,05,30,15,31,15.80
2014,05,30,15,32,15.80
2014,05,30,15,33,15.80
2014,05,30,15,34,15.80
2014,05,30,15,35,15.90
2014,05,30,15,36,15.90
2014,05,30,15,37,15.90
2014,05,30,15,38,16.00
2014,05,30,15,39,15.90
2014,05,30,15,40,15.90
2014,05,30,15,41,15.80
2014,05,30,15,42,15.80
2014,05,30,15,43,15.70
2014,05,30,15,44,15.60
2014,05,30,15,45,15.60
2014,05,30,15,46,15.60
2014,05,30,15,47,15.60
2014,05,30,15,48,15.60
2014,05,30,15,49,15.50
2014,05,30,15,50,15.40
2014,05,30,15,51,15.40
2014,05,30,15,52,15.40
2014,05,30,15,53,15.40
2014,05,30,15,54,15.40
2014,05,30,15,55,15.30
2014,05,30,15,56,15.30
2014,05,30,15,57,15.40
2014,05,30,15,58,15.40
2014,05,30,15,59,15.50
2014,05,30,16,00,15.50
2014,05,30,16,01,15.40
2014,05,30,16,02,15.40
2014,05,30,16,03,15.30
2014,05,30,16,04,15.30
2014,05,30,16,05,15.40
2014,05,30,16,06,15.40
2014,05,30,16,07,15.40
2014,05,30,16,08,15.30
2014,05,30,16,09,15.30
2014,05,30,16,10,15.30
2014,05,30,16,11,15.40
2014,05,30,16,12,15.50
2014,05,30,16,13,15.60
2014,05,30,16,14,15.60
2014,05,30,16,15,15.70
2014,05,30,16,16,15.70
2014,05,30,16,17,15.80
2014,05,30,16,18,15.80
2014,05,30,16,19,15.80
2014,05,30,16,20,15.80
2014,05,30,16,21,15.90
2014,05,30,16,22,15.80
2014,05,30,16,23,15.80
2014,05,30,16,24,15.90
2014,05,30,16,25,15.80
2014,05,30,16,26,15.80
2014,05,30,16,27,15.70
2014,05,30,16,28,15.70
2014,05,30,16,29,15.70
2014,05,30,16,30,15.80
2014,05,30,16,31,15.80
2014,05,30,16,32,15.80
2014,05,30,16,33,15.80
2014,05,30,16,34,15.70
2014,05,30,16,35,15.60
2014,05,30,16,36,15.60
2014,05,30,16,37,15.60
2014,05,30,16,38,15.60
2014,05,30,16,39,15.50
2014,05,30,16,40,15.50
2014,05,30,16,41,15.50
2014,05,30,16,42,15.40
2014,05,30,16,43,15.40
2014,05,30,16,44,15.40
2014,05,30,16,45,15.40
2014,05,30,16,46,15.50
2014,05,30,16,47,15.50
2014,05,30,16,48,15.60
2014,05,30,16,49,15.60
2014,05,30,16,50,15.70
2014,05,30,16,51,15.70
2014,05,30,16,52,15.70
2014,05,30,16,53,15.70
2014,05,30,16,54,15.70
2014,05,30,16,55,15.70
2014,05,30,16,56,15.70
2014,05,30,16,57,15.70
2014,05,30,16,58,15.70
2014,05,30,16,59,15.60
2014,05,30,17,00,15.60
2014,05,30,17,01,15.60
2014,05,30,17,02,15.70
2014,05,30,17,03,15.70
2014,05,30,17,04,15.70
2014,05,30,17,05,15.70
2014,05,30,17,06,15.80
2014,05,30,17,07,15.80
2014,05,30,17,08,15.80
2014,05,30,17,09,15.80
2014,05,30,17,10,15.70
2014,05,30,17,11,15.70
2014,05,30,17,12,15.60
2014,05,30,17,13,15.60
2014,05,30,17,14,15.50
2014,05,30,17,15,15.50
2014,05,30,17,16,15.40
2014,05,30,17,17,15.40
2014,05,30,17,18,15.30
2014,05,30,17,19,15.30
2014,05,30,17,20,15.30
2014,05,30,17,21,15.40
2014,05,30,17,22,15.40
2014,05,30,17,23,15.50
2014,05,30,17,24,15.60
2014,05,30,17,25,15.70
2014,05,30,17,26,15.80
2014,05,30,17,27,15.80
2014,05,30,17,28,15.90
2014,05,30,17,29,15.90
2014,05,30,17,30,15.90
2014,05,30,17,31,16.00
2014,05,30,17,32,16.00
2014,05,30,17,33,16.00
2014,05,30,17,34,16.10
2014,05,30,17,35,16.10
2014,05,30,17,36,16.10
2014,05,30,17,37,16.00
2014,05,30,17,38,15.90
2014,05,30,17,39,15.90
2014,05,30,17,40,15.90